[[{"header":{"parameterUnit":"m.s-1","parameterCategory":1,"la1":30.2991,"la2":30.254,"lo1":-89.0895,"lo2":-89.0444,"dy":0.0017,"dx":0.0017,"nx":28,"ny":28,"refTime":"2023-10-26T03:00:00:Z","depth":0,"parameterNumber":2,"parameterNumberName":"U-component_of_WINDS"},"data":[0,0,0,0,0,0,0,0,0,0,0,0,0,0,0,0,0,0,0,0,0,0,0,0,0,0,0,0,0,0,0,0,0,0,0,0,0,0,0,0,0,0,0,0,0,0,0,0,0,0,0,0,0,0,0,0,0,0,-4.5768,-4.5769,0,-4.5876,-4.5877,-4.5878,-4.5805,-4.5801,-4.5798,-4.5795,-4.5915,-4.5921,-4.5927,0,0,0,0,0,0,0,0,0,0,0,0,0,-4.5509,-4.5514,-4.5768,-4.5769,-4.5771,-4.5876,-4.5877,-4.5879,-4.5805,-4.5801,-4.5797,-4.5793,-4.5913,-4.592,-4.5928,0,0,0,0,0,0,0,0,0,0,0,0,0,-4.562,-4.5516,-4.5768,-4.5746,-4.5745,-4.5875,-4.5877,-4.5879,-4.5806,-4.5801,-4.5796,-4.5791,-4.591,-4.592,-4.5929,-4.6089,0,0,-4.5958,-4.5962,0,0,0,0,0,0,0,0,-4.5614,-4.5629,-4.5748,-4.5748,-4.5747,-4.5821,-4.583,-4.595,-4.5807,-4.5783,-4.5795,-4.5789,-4.5889,-4.59,-4.5931,-4.6094,-4.6099,-4.5959,-4.5965,-4.5969,-4.5971,0,0,0,0,0,0,0,-4.5606,-4.5624,-4.5811,-4.575,-4.575,-4.5735,-4.5745,-4.5852,-4.5863,-4.5785,-4.578,-4.5793,-4.5887,-4.5922,-4.5933,-4.6101,-4.5959,-4.5967,-4.5973,-4.5977,-4.6404,-4.6409,0,0,0,0,0,0,-4.5599,-4.5618,-4.5807,-4.5814,-4.5666,-4.5744,-4.5755,-4.5803,-4.5862,-4.5866,-4.5797,-4.5789,-4.5908,-4.5922,-4.5937,-4.6129,-4.5969,-4.5978,-4.5983,-4.6398,-4.6405,-4.6411,0,0,0,0,0,0,-4.5593,-4.5616,-4.5803,-4.5715,-4.5737,-4.5753,-4.5808,-4.5808,-4.5842,-4.5871,-4.5874,-4.583,-4.5905,-4.5924,-4.6051,-4.6133,-4.5982,-4.599,-4.6392,-4.64,-4.6408,-4.6514,0,0,0,0,0,0,-4.5586,-4.5615,-4.5673,-4.5717,-4.5742,-4.5912,-4.5813,-4.5813,-4.5858,-4.5848,-4.5902,-4.5907,-4.5902,-4.6038,-4.6061,-4.6143,-4.5998,-4.6384,-4.6395,-4.6405,-4.6504,-4.6525,-4.6544,0,0,0,0,0,-4.5577,-4.57,-4.5676,-4.5699,-4.5815,-4.5917,-4.5932,-4.5922,-4.5864,-4.5925,-4.5944,-4.5905,-4.612,-4.6051,-4.6077,-4.6163,-4.6379,-4.6392,-4.6405,-4.6494,-4.6521,-4.6543,0,0,0,0,0,0,-4.5668,-4.5705,-4.5679,-4.5819,-4.5865,-4.5904,-4.598,-4.595,-4.6016,-4.6005,-4.5992,-4.6005,-4.6139,-4.6164,-4.6087,-4.6322,-4.6241,-4.6259,-4.6301,-4.6326,-4.6346,-4.6337,-4.6006,0,0,0,0,0,-4.5704,-4.5781,-4.581,-4.5931,-4.5955,-4.5964,-4.6008,-4.5996,-4.6045,-4.6065,-4.6093,-4.6144,-4.6224,-4.6276,-4.6351,-4.6507,-4.6519,-4.6579,-4.6599,-4.6616,-4.6632,-4.6719,-4.6747,-4.6453,-4.6453,-4.6453,0,0,-4.578,-4.581,-4.5859,-4.595,-4.5984,-4.6067,-4.5981,-4.6072,-4.6134,-4.608,-4.6201,-4.6224,-4.6281,-4.6424,-4.6488,-4.6449,-4.6716,-4.6632,-4.6645,-4.6652,-4.6735,-4.6763,-4.6787,-4.6462,-4.646,-4.6459,0,0,-4.596,-4.5989,-4.6094,-4.613,-4.6182,-4.6187,-4.6213,-4.6257,-4.6269,-4.639,-4.6351,-4.6427,-4.6563,-4.6606,-4.6646,-4.6845,-4.6813,-4.687,-4.6975,-4.706,-4.7083,-4.7104,-4.7176,-4.7202,-4.6886,-4.6886,-4.6886,0,-4.6049,-4.6168,-4.6152,-4.6246,-4.6289,-4.624,-4.6348,-4.6385,-4.6461,-4.6493,-4.6447,-4.6617,-4.6652,-4.6806,-4.6854,-4.6887,-4.6919,-4.6863,-4.7081,-4.7101,-4.712,-4.7189,-4.7216,-4.6893,-4.6892,-4.6891,-4.6891,0,-4.6275,-4.636,-4.6438,-4.6509,-4.6561,-4.6662,-4.6664,-4.6719,-4.6704,-4.6715,-4.6841,-4.6881,-4.6964,-4.7,-4.6986,-4.7153,-4.7126,-4.7081,-4.6999,-4.7155,-4.722,-4.7246,-4.6902,-4.69,-4.6898,-4.6896,0,0,-4.6515,-4.6576,-4.6605,-4.6638,-4.6693,-4.6759,-4.686,-4.6937,-4.6986,-4.7041,-4.7126,-4.7244,-4.7202,-4.7247,-4.7239,-4.7313,-4.7471,-4.7259,-4.726,-4.7298,-4.7659,-4.7693,-4.7724,-4.745,-4.7455,-4.7459,-4.7655,0,-4.6698,-4.6869,-4.6859,-4.7021,-4.71,-4.7057,-4.7145,-4.719,-4.7205,-4.7277,-4.7294,-4.7377,-4.7315,-4.7343,-4.7414,-4.7436,-4.7543,-4.7422,-4.7533,-4.7537,-4.752,-4.7757,-4.7793,-4.7976,-4.768,-4.7684,-4.7687,0,-4.6935,-4.6995,-4.7164,-4.7209,-4.7242,-4.732,-4.7392,-4.7461,-4.7513,-4.7519,-4.757,-4.755,-4.7655,-4.7571,-4.7718,-4.7636,-4.7681,-4.7699,-4.7706,-4.7716,-4.7621,-4.7775,-4.8033,-4.8061,-4.7727,-4.7724,-4.7721,0,-4.7093,-4.7217,-4.7335,-4.7364,-4.7419,-4.7476,-4.7502,-4.7549,-4.7597,-4.7661,-4.7693,-4.777,-4.7813,-4.7875,-4.7878,-4.7816,-4.8028,-4.7943,-4.8038,-4.8038,-4.8084,-4.8081,-4.8354,-4.8113,-4.8112,-4.8112,-4.8111,0,-4.73,-4.7405,-4.7407,-4.7479,-4.7597,-4.7587,-4.7705,-4.7726,-4.7769,-4.7848,-4.7817,-4.7892,-4.7891,-4.7969,-4.7972,-4.8095,-4.8115,-4.8124,-4.8124,-4.8127,-4.8126,-4.8157,-4.8144,-4.8119,-4.8117,-4.8116,-4.8115,0,-4.7496,-4.7501,-4.7627,-4.7668,-4.7682,-4.7767,-4.7805,-4.7876,-4.7887,-4.7988,-4.8011,-4.8031,-4.8121,-4.813,-4.8236,-4.8238,-4.8387,-4.8373,-4.8368,-4.8366,-4.846,-4.8452,-4.8763,-4.8804,-4.8535,-4.8538,-4.854,0,-4.7627,-4.7707,-4.7757,-4.7806,-4.7835,-4.7915,-4.7963,-4.7957,-4.801,-4.8077,-4.8141,-4.8227,-4.8296,-4.8443,-4.847,-4.8551,-4.854,-4.8643,-4.8552,-4.8553,-4.8543,-4.8538,-4.8547,-4.8661,-4.8664,-4.8666,-4.8668,0,-4.786,-4.7859,-4.7928,-4.8,-4.8058,-4.8115,-4.8168,-4.8211,-4.8213,-4.8274,-4.8364,-4.8418,-4.8525,-4.8613,-4.8693,-4.8725,-4.8699,-4.8697,-4.8723,-4.8727,-4.8721,-4.8727,-4.8417,-4.869,-4.8688,-4.8686,-4.8685,-4.8684,-4.8028,-4.8098,-4.8144,-4.8224,-4.8263,-4.8314,-4.8383,-4.8403,-4.8477,-4.8561,-4.8555,-4.8656,-4.871,-4.8814,-4.8852,-4.8933,-4.8899,-4.8937,-4.8947,-4.8957,-4.8966,-4.8708,-4.8948,-4.8948,-4.8947,-4.8947,-4.8946,0,-4.826,-4.8288,-4.8361,-4.8435,-4.8499,-4.8466,-4.8524,-4.858,-4.8668,-4.8719,-4.8787,-4.8893,-4.8979,-4.9012,-4.9097,-4.9156,-4.9146,-4.9178,-4.9174,-4.9182,-4.8992,-4.8961,-4.9185,-4.9185,-4.9185,-4.9184,-4.9184,-4.9184,-4.8387,-4.8504,-4.8509,-4.8646,-4.8674,-4.877,-4.8807,-4.8855,-4.8895,-4.9014,-4.9083,-4.9104,-4.9149,-4.9237,-4.9316,-4.9324,-4.9357,-4.9395,-4.9398,-4.9219,-4.9195,-4.9172,-4.9143,-4.9402,-4.9402,-4.9581,-4.9583,-4.9584]},{"header":{"parameterUnit":"m.s-1","parameterCategory":1,"la1":30.2991,"la2":30.254,"lo1":-89.0895,"lo2":-89.0444,"dy":0.0017,"dx":0.0017,"nx":28,"ny":28,"refTime":"2023-10-26T03:00:00:Z","depth":0,"parameterNumber":3,"parameterNumberName":"V-component_of_WINDS"},"data":[0,0,0,0,0,0,0,0,0,0,0,0,0,0,0,0,0,0,0,0,0,0,0,0,0,0,0,0,0,0,0,0,0,0,0,0,0,0,0,0,0,0,0,0,0,0,0,0,0,0,0,0,0,0,0,0,0,0,-0.3908,-0.3907,0,-0.3809,-0.3808,-0.3807,-0.3732,-0.3731,-0.3731,-0.373,-0.3627,-0.3625,-0.3623,0,0,0,0,0,0,0,0,0,0,0,0,0,-0.4027,-0.4026,-0.3908,-0.3907,-0.3906,-0.3809,-0.3808,-0.3806,-0.3732,-0.3731,-0.3731,-0.373,-0.3628,-0.3625,-0.3623,0,0,0,0,0,0,0,0,0,0,0,0,0,-0.3957,-0.4025,-0.3908,-0.3857,-0.3851,-0.3809,-0.3808,-0.3806,-0.3732,-0.3731,-0.373,-0.3729,-0.3629,-0.3626,-0.3622,-0.3623,0,0,-0.3613,-0.3611,0,0,0,0,0,0,0,0,-0.3961,-0.3952,-0.3866,-0.386,-0.3854,-0.3782,-0.3812,-0.3745,-0.3733,-0.3778,-0.373,-0.3729,-0.3679,-0.3672,-0.3655,-0.3618,-0.3614,-0.3612,-0.3611,-0.3609,-0.3608,0,0,0,0,0,0,0,-0.3966,-0.3956,-0.3869,-0.3864,-0.3857,-0.3837,-0.3826,-0.3799,-0.3735,-0.3773,-0.3768,-0.3757,-0.3676,-0.3659,-0.3653,-0.3612,-0.3613,-0.361,-0.3608,-0.3607,-0.3564,-0.3565,0,0,0,0,0,0,-0.3979,-0.3961,-0.3872,-0.3866,-0.3906,-0.3836,-0.3823,-0.3806,-0.3735,-0.3724,-0.3758,-0.3754,-0.3665,-0.3656,-0.3649,-0.3641,-0.3609,-0.3606,-0.3604,-0.3564,-0.3564,-0.3565,0,0,0,0,0,0,-0.3982,-0.3972,-0.3876,-0.3912,-0.3898,-0.3835,-0.3816,-0.3805,-0.3787,-0.3724,-0.3712,-0.3753,-0.3664,-0.3653,-0.3629,-0.3637,-0.3605,-0.3602,-0.3563,-0.3564,-0.3565,-0.3629,0,0,0,0,0,0,-0.3986,-0.3974,-0.3975,-0.3912,-0.3896,-0.386,-0.3817,-0.3803,-0.3782,-0.3776,-0.3715,-0.3704,-0.3662,-0.3634,-0.3626,-0.3632,-0.3599,-0.3562,-0.3563,-0.3565,-0.3626,-0.3632,-0.3637,0,0,0,0,0,-0.399,-0.3997,-0.3975,-0.3965,-0.3897,-0.386,-0.3851,-0.3803,-0.3783,-0.3783,-0.3741,-0.3706,-0.3637,-0.3632,-0.3622,-0.3627,-0.3561,-0.3563,-0.3564,-0.3623,-0.3631,-0.3637,0,0,0,0,0,0,-0.4063,-0.3988,-0.3963,-0.395,-0.3912,-0.3848,-0.3846,-0.3813,-0.3779,-0.3775,-0.3715,-0.3702,-0.3683,-0.3653,-0.3648,-0.3621,-0.3594,-0.3594,-0.3642,-0.3649,-0.3655,-0.3662,-0.3597,0,0,0,0,0,-0.4078,-0.4056,-0.3991,-0.3986,-0.3968,-0.391,-0.3893,-0.3858,-0.3816,-0.38,-0.3756,-0.3716,-0.3684,-0.3665,-0.3633,-0.362,-0.3604,-0.3618,-0.3624,-0.363,-0.363,-0.3616,-0.3621,-0.3571,-0.3571,-0.3571,0,0,-0.4108,-0.4064,-0.4054,-0.3999,-0.3966,-0.3942,-0.3897,-0.3876,-0.3856,-0.3796,-0.377,-0.3736,-0.3686,-0.3667,-0.3656,-0.3641,-0.364,-0.3632,-0.3636,-0.3634,-0.3619,-0.3623,-0.3628,-0.3572,-0.3572,-0.3572,0,0,-0.4149,-0.4116,-0.4106,-0.4072,-0.4021,-0.3982,-0.398,-0.3919,-0.3894,-0.3867,-0.382,-0.3795,-0.3744,-0.3708,-0.3684,-0.3707,-0.3673,-0.3698,-0.3729,-0.3717,-0.372,-0.3724,-0.3729,-0.3732,-0.3699,-0.3699,-0.3699,0,-0.4193,-0.4157,-0.4105,-0.4084,-0.406,-0.4003,-0.3991,-0.396,-0.3902,-0.3885,-0.3869,-0.3799,-0.3762,-0.3731,-0.3737,-0.372,-0.3712,-0.3706,-0.3724,-0.3727,-0.3729,-0.3733,-0.3736,-0.3703,-0.3702,-0.3702,-0.3702,0,-0.4211,-0.4186,-0.4184,-0.4128,-0.4103,-0.4087,-0.403,-0.4011,-0.3977,-0.3939,-0.3909,-0.3862,-0.3817,-0.3807,-0.3775,-0.377,-0.3762,-0.3736,-0.3707,-0.3738,-0.3741,-0.3742,-0.3707,-0.3706,-0.3705,-0.3704,0,0,-0.4299,-0.4211,-0.4211,-0.4183,-0.412,-0.4099,-0.4078,-0.4034,-0.4017,-0.3977,-0.3956,-0.3911,-0.3885,-0.3857,-0.382,-0.3809,-0.3826,-0.3784,-0.3781,-0.3791,-0.3814,-0.3833,-0.3836,-0.3802,-0.3803,-0.3803,-0.3817,0,-0.4329,-0.4291,-0.4241,-0.4218,-0.4192,-0.4135,-0.4117,-0.4075,-0.4037,-0.4008,-0.3966,-0.3934,-0.3904,-0.3886,-0.3872,-0.3827,-0.383,-0.3825,-0.378,-0.3779,-0.3793,-0.3838,-0.3859,-0.3875,-0.3818,-0.3818,-0.3818,0,-0.4361,-0.4323,-0.4298,-0.4233,-0.422,-0.4205,-0.4158,-0.4132,-0.4081,-0.4054,-0.4021,-0.398,-0.3951,-0.3926,-0.3884,-0.3882,-0.386,-0.3834,-0.3833,-0.3827,-0.38,-0.3831,-0.3879,-0.3881,-0.382,-0.382,-0.382,0,-0.4424,-0.4366,-0.4343,-0.4321,-0.4246,-0.4235,-0.4204,-0.4152,-0.4127,-0.4085,-0.4068,-0.4024,-0.3999,-0.3964,-0.391,-0.3897,-0.3872,-0.3844,-0.3847,-0.3848,-0.3844,-0.3845,-0.3889,-0.3833,-0.3833,-0.3832,-0.3832,0,-0.4463,-0.4449,-0.4369,-0.4355,-0.4336,-0.4277,-0.4259,-0.4222,-0.4176,-0.4151,-0.4098,-0.4075,-0.4007,-0.3974,-0.3932,-0.3901,-0.3891,-0.3866,-0.3855,-0.387,-0.3873,-0.3855,-0.3852,-0.3833,-0.3833,-0.3833,-0.3833,0,-0.4531,-0.4477,-0.4447,-0.4378,-0.436,-0.4349,-0.4288,-0.427,-0.4228,-0.4196,-0.4185,-0.4119,-0.4077,-0.402,-0.3962,-0.3933,-0.3907,-0.389,-0.3925,-0.3918,-0.3923,-0.3923,-0.3955,-0.3955,-0.3901,-0.3902,-0.3902,0,-0.4559,-0.4546,-0.4475,-0.4454,-0.4424,-0.4392,-0.4366,-0.4306,-0.428,-0.4219,-0.4207,-0.4162,-0.4123,-0.4059,-0.4004,-0.3957,-0.3938,-0.3952,-0.393,-0.3945,-0.3935,-0.3936,-0.3932,-0.3958,-0.3958,-0.3959,-0.396,0,-0.4613,-0.4586,-0.4551,-0.4506,-0.4476,-0.4437,-0.4395,-0.4381,-0.4311,-0.4284,-0.4242,-0.4211,-0.4149,-0.4104,-0.4049,-0.4013,-0.3974,-0.3967,-0.3964,-0.398,-0.3999,-0.3986,-0.3937,-0.3966,-0.3966,-0.3965,-0.3965,-0.3965,-0.466,-0.4645,-0.4591,-0.4552,-0.4515,-0.4476,-0.4454,-0.4409,-0.4372,-0.4318,-0.4284,-0.4242,-0.4187,-0.4109,-0.4074,-0.4038,-0.4023,-0.402,-0.4019,-0.4019,-0.4023,-0.4006,-0.4028,-0.4028,-0.4028,-0.4027,-0.4027,0,-0.4709,-0.4671,-0.4636,-0.4579,-0.4548,-0.4514,-0.4464,-0.444,-0.4404,-0.4356,-0.4318,-0.4266,-0.422,-0.416,-0.4109,-0.4091,-0.4071,-0.408,-0.408,-0.4071,-0.4042,-0.4048,-0.4096,-0.4096,-0.4096,-0.4096,-0.4096,-0.4096,-0.4731,-0.4703,-0.4669,-0.4619,-0.458,-0.454,-0.4514,-0.4476,-0.4438,-0.4383,-0.4344,-0.4306,-0.4251,-0.4195,-0.415,-0.4133,-0.4116,-0.4129,-0.4107,-0.408,-0.4074,-0.4068,-0.4073,-0.4127,-0.4127,-0.4139,-0.4139,-0.4139]}]]